Canadian, TX

9:17 AM CST on December 07, 2016 (GMT -0600)
Hemphill County

Weather History for KHHF - January, 2014

Change the Weather History Date:

Wednesday, January 8, 2014

  Actual Average (KPPA) Record (KPPA)
Temperature  
Mean Temperature 33 °F -  
Max Temperature 42 °F 42 °F 75 °F (1965)
Min Temperature 24 °F 19 °F -3 °F (1988)
Degree Days  
Heating Degree Days 32    
Moisture  
Dew Point 23 °F    
Average Humidity 65    
Maximum Humidity 86    
Minimum Humidity 47    
Precipitation  
Precipitation 0.00 in - - ()
Sea Level Pressure  
Sea Level Pressure 30.03 in    
Wind  
Wind Speed 9 mph (East)    
Max Wind Speed 16 mph    
Max Gust Speed 24 mph    
Visibility 10 miles    
Events      
Averages and records for this station are not official NWS values.
T = Trace of Precipitation, MM = Missing Value Source: NWS Daily Summary

Daily Weather History Graph

Daily Weather History Graph

Search for Another Location

Airport or City:

Trip Planner

Search our weather history database for the weather conditions in past years. The results will help you decide how hot, cold, wet, or windy it might be!

Date:

Astronomy

Jan. 08, 2014 Rise Set
Actual Time 7:52 AM CST 5:44 PM CST
Civil Twilight 7:24 AM CST 6:12 PM CST
Nautical Twilight 6:52 AM CST 6:44 PM CST
Astronomical Twilight 6:21 AM CST 7:15 PM CST
Moon 12:32 PM CST (1/8) 1:06 AM CST (1/8)
Length of Visible Light 10h 48m
Length of Day
9h 52m
First Quarter, 56% of the Moon is Illuminated
Jan 8
First Quarter
Jan 15
Full
Jan 23
Last Quarter
Jan 30
New
Feb 6
First Quarter

Hourly Weather History & Observations

Time (CST) Temp. Windchill Dew Point Humidity Pressure Visibility Wind Dir Wind Speed Gust Speed Precip Events Conditions
12:15 AM 38.8 °F 30.8 °F 20.8 °F 48% 29.94 in 10.0 mi South 13.8 mph 24.2 mph N/A   Clear
12:35 AM 38.3 °F 30.5 °F 20.8 °F 50% 29.93 in 10.0 mi South 12.7 mph 19.6 mph N/A   Clear
12:55 AM 37.4 °F 29.3 °F 21.0 °F 52% 29.92 in 10.0 mi SSW 12.7 mph 17.3 mph N/A   Clear
1:15 AM 36.9 °F 29.1 °F 21.2 °F 53% 29.91 in 10.0 mi SSW 11.5 mph 16.1 mph N/A   Clear
1:35 AM 36.0 °F 27.1 °F 21.0 °F 55% 29.91 in 10.0 mi SSW 13.8 mph 20.7 mph N/A   Clear
1:55 AM 35.2 °F 26.6 °F 21.0 °F 56% 29.90 in 10.0 mi SSW 12.7 mph - N/A   Clear
2:15 AM 35.6 °F 28.0 °F 21.0 °F 55% 29.90 in 10.0 mi SSW 10.4 mph 16.1 mph N/A   Clear
2:35 AM 35.2 °F 27.1 °F 21.2 °F 57% 29.91 in 10.0 mi SSW 11.5 mph - N/A   Clear
2:55 AM 35.8 °F 26.9 °F 21.6 °F 56% 29.89 in 10.0 mi SSW 13.8 mph 20.7 mph N/A   Clear
3:15 AM 35.6 °F 29.2 °F 21.6 °F 57% 29.90 in 10.0 mi South 8.1 mph - N/A   Clear
3:35 AM 35.6 °F 29.9 °F 21.6 °F 57% 29.91 in 10.0 mi South 6.9 mph - N/A   Clear
3:55 AM 34.9 °F 28.3 °F 21.7 °F 59% 29.91 in 10.0 mi SSW 8.1 mph - N/A   Clear
4:15 AM 34.0 °F 26.6 °F 21.9 °F 61% 29.89 in 10.0 mi SSE 9.2 mph - N/A   Clear
4:35 AM 34.2 °F 30.0 °F 21.9 °F 61% 29.89 in 10.0 mi SSE 4.6 mph - N/A   Clear
4:55 AM 33.4 °F 29.1 °F 21.9 °F 63% 29.89 in 10.0 mi South 4.6 mph - N/A   Clear
5:15 AM 32.0 °F 27.5 °F 21.9 °F 66% 29.90 in 10.0 mi SE 4.6 mph - N/A   Clear
5:35 AM 31.1 °F 25.4 °F 21.7 °F 68% 29.90 in 10.0 mi SE 5.8 mph - N/A   Clear
5:55 AM 30.0 °F 24.1 °F 21.4 °F 70% 29.90 in 10.0 mi SE 5.8 mph - N/A   Clear
6:15 AM 29.1 °F 24.1 °F 21.2 °F 72% 29.90 in 10.0 mi SSE 4.6 mph - N/A   Clear
6:35 AM 28.4 °F 22.2 °F 21.0 °F 74% 29.91 in 10.0 mi SE 5.8 mph - N/A   Clear
6:55 AM 28.2 °F 24.4 °F 21.6 °F 76% 29.91 in 10.0 mi SE 3.5 mph - N/A   Clear
7:15 AM 26.2 °F 22.1 °F 21.0 °F 81% 29.91 in 10.0 mi SE 3.5 mph - N/A   Clear
7:35 AM 26.6 °F 21.2 °F 21.2 °F 80% 29.93 in 10.0 mi ESE 4.6 mph - N/A   Clear
7:55 AM 24.3 °F 16.3 °F 20.5 °F 85% 29.94 in 10.0 mi ESE 6.9 mph - N/A   Clear
8:15 AM 24.4 °F 16.5 °F 20.8 °F 86% 29.95 in 10.0 mi ESE 6.9 mph - N/A   Clear
8:35 AM 25.5 °F 21.3 °F 21.6 °F 85% 29.96 in 10.0 mi East 3.5 mph - N/A   Clear
8:55 AM 27.7 °F 23.8 °F 23.0 °F 83% 29.98 in 10.0 mi East 3.5 mph - N/A   Clear
9:15 AM 29.7 °F 24.7 °F 23.7 °F 79% 29.99 in 10.0 mi East 4.6 mph - N/A   Clear
9:35 AM 30.4 °F 25.6 °F 23.5 °F 76% 30.00 in 10.0 mi ENE 4.6 mph - N/A   Clear
9:55 AM 31.1 °F 27.7 °F 23.7 °F 74% 30.02 in 10.0 mi ENE 3.5 mph - N/A   Clear
10:15 AM 32.0 °F 27.5 °F 23.7 °F 71% 30.03 in 10.0 mi North 4.6 mph - N/A   Clear
10:35 AM 34.0 °F 28.0 °F 24.4 °F 68% 30.04 in 10.0 mi North 6.9 mph - N/A   Clear
10:55 AM 35.4 °F 29.0 °F 24.1 °F 63% 30.05 in 10.0 mi North 8.1 mph - N/A   Clear
11:15 AM 36.5 °F 27.4 °F 23.9 °F 60% 30.05 in 10.0 mi NNE 15.0 mph 20.7 mph N/A   Clear
11:35 AM 37.0 °F 29.3 °F 24.3 °F 60% 30.05 in 10.0 mi North 11.5 mph - N/A   Clear
11:55 AM 38.3 °F 30.5 °F 24.1 °F 57% 30.05 in 10.0 mi North 12.7 mph 17.3 mph N/A   Clear
12:15 PM 38.7 °F 29.8 °F 23.9 °F 55% 30.04 in 10.0 mi North 16.1 mph 20.7 mph N/A   Clear
12:35 PM 39.7 °F 31.9 °F 23.9 °F 53% 30.04 in 10.0 mi North 13.8 mph 18.4 mph N/A   Clear
12:55 PM 40.6 °F 33.0 °F 23.9 °F 51% 30.04 in 10.0 mi NNE 13.8 mph - N/A   Clear
1:15 PM 41.2 °F 34.5 °F 23.9 °F 50% 30.04 in 10.0 mi North 11.5 mph 19.6 mph N/A   Clear
1:35 PM 41.5 °F 34.2 °F 23.7 °F 49% 30.04 in 10.0 mi North 13.8 mph 20.7 mph N/A   Clear
1:55 PM 41.7 °F 35.6 °F 23.5 °F 49% 30.04 in 10.0 mi NNE 10.4 mph 20.7 mph N/A   Clear
2:15 PM 42.3 °F 35.1 °F 23.0 °F 47% 30.04 in 10.0 mi NE 13.8 mph - N/A   Clear
2:35 PM 42.3 °F 36.3 °F 23.0 °F 47% 30.04 in 10.0 mi NNE 10.4 mph 13.8 mph N/A   Clear
2:55 PM 42.6 °F 35.6 °F 23.4 °F 47% 30.05 in 10.0 mi NNE 13.8 mph 23.0 mph N/A   Clear
3:15 PM 42.3 °F 36.3 °F 23.4 °F 47% 30.05 in 10.0 mi NE 10.4 mph 16.1 mph N/A   Clear
3:35 PM 42.1 °F 36.1 °F 23.4 °F 48% 30.06 in 10.0 mi NNE 10.4 mph 19.6 mph N/A   Clear
3:55 PM 41.9 °F 34.6 °F 23.2 °F 47% 30.07 in 10.0 mi NNE 13.8 mph - N/A   Clear
4:15 PM 41.4 °F 34.3 °F 23.4 °F 49% 30.07 in 10.0 mi NNE 12.7 mph 16.1 mph N/A   Clear
4:35 PM 41.0 °F 33.9 °F 23.4 °F 50% 30.07 in 10.0 mi NNE 12.7 mph - N/A   Clear
4:55 PM 40.1 °F 34.1 °F 23.4 °F 51% 30.08 in 10.0 mi NNE 9.2 mph - N/A   Clear
5:15 PM 39.2 °F 32.5 °F 23.2 °F 53% 30.08 in 10.0 mi NNE 10.4 mph - N/A   Clear
5:35 PM 38.1 °F 32.9 °F 23.4 °F 55% 30.09 in 10.0 mi NNE 6.9 mph - N/A   Clear
5:55 PM 36.0 °F 31.1 °F 23.0 °F 59% 30.10 in 10.0 mi NNE 5.8 mph - N/A   Clear
6:15 PM 34.7 °F 29.6 °F 23.2 °F 63% 30.11 in 10.0 mi NNE 5.8 mph - N/A   Clear
6:35 PM 33.8 °F 29.6 °F 23.0 °F 65% 30.12 in 10.0 mi NNE 4.6 mph - N/A   Clear
6:55 PM 32.9 °F 29.8 °F 22.8 °F 66% 30.12 in 10.0 mi NNE 3.5 mph - N/A   Clear
7:15 PM 32.0 °F - 22.8 °F 69% 30.14 in 10.0 mi Calm Calm - N/A   Clear
7:35 PM 32.9 °F - 23.4 °F 68% 30.15 in 10.0 mi Calm Calm - N/A   Clear
7:55 PM 30.7 °F - 22.5 °F 71% 30.17 in 10.0 mi Calm Calm - N/A   Clear
8:15 PM 31.1 °F - 23.0 °F 72% 30.18 in 10.0 mi Calm Calm - N/A   Clear
8:35 PM 28.4 °F - 21.6 °F 76% 30.19 in 10.0 mi Calm Calm - N/A   Clear
8:55 PM 28.2 °F 24.4 °F 21.9 °F 77% 30.20 in 10.0 mi WSW 3.5 mph - N/A   Clear
9:15 PM 29.3 °F - 23.0 °F 77% 30.20 in 10.0 mi Calm Calm - N/A   Clear
9:35 PM 28.9 °F - 23.0 °F 78% 30.19 in 10.0 mi Calm Calm - N/A   Clear
9:55 PM 27.1 °F - 22.5 °F 83% 30.18 in 10.0 mi Calm Calm - N/A   Clear
10:15 PM 27.5 °F - 22.1 °F 80% 30.17 in 10.0 mi Calm Calm - N/A   Clear
10:35 PM 25.3 °F - 21.4 °F 85% 30.18 in 10.0 mi Calm Calm - N/A   Scattered Clouds
10:55 PM 27.5 °F - 23.2 °F 84% 30.17 in 10.0 mi Calm Calm - N/A   Clear
11:15 PM 26.8 °F 22.8 °F 22.6 °F 84% 30.18 in 10.0 mi SW 3.5 mph - N/A   Clear
11:35 PM 26.8 °F - 23.2 °F 86% 30.18 in 10.0 mi Calm Calm - N/A   Clear
11:55 PM 26.6 °F 22.6 °F 22.8 °F 86% 30.18 in 10.0 mi South 3.5 mph - N/A   Clear